Home   Weather   Mons   Past weeks

Flag for Belgium Past Weather in Mons, Belgium — Yesterday and Last 2 Weeks

Now
50 °F

Drizzle. Low clouds.


Feels Like: 44 °F
Forecast: 43 / 50 °F
Wind: 20 mph from Southwest

Location: Chievres

Current Time: Feb 22, 2017 at 2:36:37 am

Latest Report: Feb 22, 2017 at 1:55 am


Visibility: N/A

Pressure: 29.95 "Hg

Humidity: 88%

Dew Point: 46 °F

Location of MonsLocation

Past Weather in Mons — Graph

°F

Mons Temperature Yesterday

Maximum temperature yesterday: 52 °F (at 1:55 pm)
Minimum temperature yesterday: 48 °F (at 12:25 am)
Average temperature yesterday: 50 °F

High & Low Weather Summary for the Past Weeks

 TemperatureHumidityPressure
High59 °F (Feb 14, 3:25 pm)100% (Feb 7, 2:55 pm)30.48 "Hg (Feb 7, 2:55 pm)
Low28 °F (Feb 10, 4:25 am)48% (Feb 14, 3:55 pm)29.95 "Hg (Feb 7, 9:55 am)
Average41 °F89%30.22 "Hg
* Reported Feb 7 12:22 am — Feb 22 12:55 am, Mons, Weather by CustomWeather, © 2017

Note: Actual official high and low records may vary slightly from our data, if they occured in-between our weather recording intervals... More about our weather records

Advertising

Mons Weather History for the Previous 24 Hours

Scroll right to see more
 ConditionsComfort  
Time TempWeatherWind HumidityBarometerVisibility
12:55 am
Wed, Feb 22
50 °FDrizzle. Low clouds.18 mph94%29.95 "HgN/A
12:25 am50 °FLow clouds.18 mph94%29.95 "HgN/A
11:55 pm
Tue, Feb 21
50 °FLow clouds.21 mph94%29.98 "HgN/A
11:25 pm50 °FLight rain. Low clouds.20 mph94%29.98 "Hg5 mi
10:55 pm50 °FOvercast.17 mph88%29.98 "HgN/A
10:25 pm50 °FLow clouds.17 mph88%29.98 "HgN/A
9:55 pm50 °FLight rain. Low clouds.16 mph94%29.98 "Hg2 mi
9:25 pm48 °FDrizzle. Low clouds.15 mph100%30.01 "Hg3 mi
8:55 pm48 °FDrizzle. Low clouds.13 mph100%30.01 "Hg2 mi
8:25 pm50 °FDrizzle. Low clouds.15 mph94%30.01 "Hg6 mi
7:55 pm50 °FLow clouds.15 mph94%30.01 "HgN/A
7:25 pm50 °FDrizzle. Low clouds.14 mph94%30.01 "Hg6 mi
6:55 pm50 °FDrizzle. Low clouds.12 mph94%30.01 "Hg4 mi
6:25 pm50 °FDrizzle. Low clouds.12 mph94%30.01 "HgN/A
5:55 pm50 °FLow clouds.10 mph94%30.01 "Hg5 mi
5:25 pm50 °FLow clouds.12 mph94%30.01 "HgN/A
4:55 pm50 °FLow clouds.10 mph94%30.04 "HgN/A
4:25 pm50 °FLow clouds.10 mph94%30.04 "HgN/A
3:55 pm50 °FLow clouds.9 mph100%30.04 "HgN/A
3:38 pm50 °FLight rain. Low clouds.12 mph94%30.04 "Hg1 mi
3:25 pm52 °FLow clouds.9 mph88%30.04 "HgN/A
2:55 pm50 °FLow clouds.8 mph94%30.04 "Hg4 mi
2:25 pm52 °FLow clouds.12 mph88%30.07 "HgN/A
1:55 pm52 °FLow clouds.12 mph88%30.07 "HgN/A
1:25 pm50 °FLow clouds.13 mph94%30.07 "HgN/A
12:55 pm50 °FLow clouds.13 mph94%30.07 "Hg5 mi
12:25 pm50 °FDrizzle. Low clouds.12 mph94%30.07 "Hg4 mi
11:25 am50 °FDrizzle. Low clouds.10 mph94%30.07 "Hg2 mi
10:55 am48 °FLight rain. Low clouds.9 mph100%30.07 "Hg3 mi
9:55 am48 °FLight rain. Low clouds.9 mph100%30.07 "Hg3 mi
9:25 am48 °FLight rain. Low clouds.8 mph100%30.07 "Hg3 mi
8:55 am48 °FLight rain. Low clouds.10 mph100%30.07 "Hg2 mi
8:25 am48 °FLight rain. Low clouds.10 mph100%30.04 "Hg3 mi
8:09 am50 °FLight rain. Low clouds.12 mph94%30.04 "Hg2 mi
7:55 am50 °FLight rain. Low clouds.13 mph94%30.04 "Hg6 mi
7:25 am50 °FLow clouds.10 mph94%30.04 "Hg5 mi
6:55 am50 °FPassing clouds.10 mph94%30.04 "Hg4 mi
6:25 am50 °FLow clouds.9 mph94%30.04 "Hg3 mi
5:55 am50 °FDrizzle. Low clouds.10 mph94%30.04 "Hg5 mi
5:25 am50 °FDrizzle. Low clouds.9 mph94%30.04 "Hg4 mi
5:13 am50 °FLow clouds.9 mph94%30.04 "Hg3 mi
4:55 am50 °FFog.9 mph94%30.04 "Hg3 mi
4:25 am50 °FFog.10 mph94%30.04 "Hg2 mi
3:55 am50 °FFog.9 mph94%30.04 "Hg3 mi
3:25 am48 °FLight rain. Low clouds.10 mph100%30.04 "Hg2 mi
2:55 am48 °FDrizzle. Low clouds.12 mph100%30.04 "Hg2 mi
2:25 am48 °FDrizzle. Low clouds.13 mph100%30.04 "Hg2 mi
Weather by CustomWeather, © 2017

See weather overviewHow to use our weather pages